[[{"header":{"parameterUnit":"m.s-1","parameterCategory":1,"la1":30.2991,"la2":30.254,"lo1":-89.0895,"lo2":-89.0444,"dy":0.0017,"dx":0.0017,"nx":28,"ny":28,"refTime":"2024-07-30T03:00:00:Z","depth":0,"parameterNumber":2,"parameterNumberName":"U-component_of_WINDS"},"data":[0,0,0,0,0,0,0,0,0,0,0,0,0,0,0,0,0,0,0,0,0,0,0,0,0,0,0,0,0,0,0,0,0,0,0,0,0,0,0,0,0,0,0,0,0,0,0,0,0,0,0,0,0,0,0,0,0,0,1.5627,1.5627,0,1.5685,1.5686,1.5687,1.5684,1.5683,1.5682,1.5681,1.5749,1.5751,1.5754,0,0,0,0,0,0,0,0,0,0,0,0,0,1.5518,1.552,1.5626,1.5627,1.5628,1.5685,1.5686,1.5687,1.5684,1.5683,1.5682,1.5681,1.5748,1.5751,1.5754,0,0,0,0,0,0,0,0,0,0,0,0,0,1.557,1.5521,1.5626,1.5633,1.5634,1.5685,1.5686,1.5687,1.5684,1.5683,1.5681,1.568,1.5747,1.5751,1.5755,1.5805,0,0,1.5767,1.5768,0,0,0,0,0,0,0,0,1.5567,1.5574,1.5631,1.5633,1.5634,1.5676,1.5673,1.5727,1.5684,1.5665,1.5681,1.5679,1.5726,1.5732,1.5746,1.5808,1.5811,1.5767,1.5769,1.5771,1.5772,0,0,0,0,0,0,0,1.5564,1.5572,1.565,1.5632,1.5634,1.5636,1.5641,1.5683,1.5703,1.5667,1.5667,1.5673,1.5727,1.5742,1.5747,1.5812,1.5767,1.577,1.5773,1.5774,1.592,1.5921,0,0,0,0,0,0,1.5558,1.5569,1.5648,1.5652,1.5596,1.5638,1.5645,1.5664,1.5702,1.5706,1.5674,1.5673,1.5736,1.5743,1.575,1.5811,1.5771,1.5775,1.5777,1.5918,1.592,1.5921,0,0,0,0,0,0,1.5555,1.5565,1.5646,1.561,1.5621,1.5642,1.5663,1.5666,1.5681,1.5708,1.5712,1.5686,1.5735,1.5744,1.5791,1.5813,1.5776,1.578,1.5916,1.5919,1.5921,1.5934,0,0,0,0,0,0,1.5552,1.5564,1.5581,1.561,1.5622,1.5684,1.5664,1.5668,1.5687,1.5685,1.572,1.5724,1.5735,1.5785,1.5795,1.5818,1.5783,1.5914,1.5917,1.592,1.5931,1.5936,1.594,0,0,0,0,0,1.5548,1.5584,1.5582,1.5592,1.5644,1.5685,1.5692,1.5701,1.5689,1.5707,1.5725,1.5723,1.5809,1.579,1.5801,1.5825,1.5913,1.5916,1.592,1.5929,1.5935,1.594,0,0,0,0,0,0,1.5559,1.5588,1.5586,1.5632,1.5656,1.5684,1.5708,1.5707,1.5737,1.5735,1.5748,1.5755,1.5802,1.5819,1.5796,1.5877,1.586,1.5866,1.5863,1.5869,1.5874,1.5868,1.5786,0,0,0,0,0,1.5566,1.5595,1.5619,1.5658,1.5669,1.5687,1.5705,1.571,1.5736,1.5747,1.5767,1.5795,1.5828,1.585,1.5882,1.5934,1.5942,1.5957,1.5961,1.5965,1.597,1.5999,1.6006,1.5933,1.5933,1.5933,0,0,1.5583,1.5602,1.5619,1.566,1.5679,1.571,1.5695,1.5729,1.5752,1.5753,1.5797,1.5813,1.5845,1.5894,1.5918,1.591,1.5992,1.5969,1.5972,1.5975,1.6003,1.601,1.6016,1.5935,1.5935,1.5934,0,0,1.5627,1.5645,1.5678,1.5697,1.5725,1.5737,1.5745,1.5774,1.5784,1.5828,1.5829,1.5859,1.5916,1.5938,1.5957,1.6012,1.6011,1.6022,1.6045,1.6073,1.6079,1.6084,1.6104,1.611,1.6027,1.6027,1.6027,0,1.5644,1.5688,1.5696,1.5729,1.5748,1.5748,1.5783,1.5802,1.584,1.5854,1.5845,1.5916,1.5938,1.5992,1.6005,1.6021,1.6032,1.6018,1.6077,1.6083,1.6088,1.6106,1.6113,1.6028,1.6028,1.6028,1.6028,0,1.5708,1.5739,1.5763,1.5797,1.5819,1.5853,1.5868,1.589,1.5894,1.5907,1.5953,1.5979,1.6016,1.603,1.6035,1.6086,1.608,1.6074,1.6057,1.6095,1.6113,1.612,1.603,1.6029,1.6029,1.6029,0,0,1.576,1.5798,1.5807,1.5822,1.5854,1.5879,1.5915,1.5949,1.5967,1.5995,1.6025,1.6074,1.6068,1.6089,1.6097,1.6122,1.6164,1.6114,1.6114,1.6121,1.6222,1.6225,1.6233,1.6164,1.6166,1.6167,1.6219,0,1.5807,1.5866,1.5875,1.5928,1.5957,1.5959,1.599,1.6014,1.6028,1.6056,1.6073,1.6106,1.6097,1.611,1.6135,1.6153,1.6184,1.615,1.6194,1.6195,1.6184,1.6242,1.6246,1.6294,1.6226,1.6227,1.6228,0,1.587,1.5896,1.5951,1.5979,1.5992,1.6019,1.6052,1.6079,1.6107,1.6115,1.6139,1.6144,1.6183,1.6166,1.622,1.6197,1.6216,1.6228,1.623,1.6234,1.6213,1.6247,1.6309,1.6316,1.6239,1.6238,1.6237,0,1.5901,1.5951,1.599,1.6004,1.6038,1.6057,1.6072,1.6099,1.6119,1.6149,1.6163,1.6197,1.6216,1.6244,1.6259,1.6245,1.6313,1.6296,1.6322,1.6321,1.6335,1.6334,1.64,1.6349,1.6349,1.6349,1.6349,0,1.5952,1.5986,1.6005,1.6029,1.6068,1.6079,1.6118,1.6133,1.6157,1.6186,1.6191,1.6218,1.6237,1.6268,1.628,1.6324,1.6333,1.6342,1.6344,1.634,1.6339,1.6352,1.6349,1.6351,1.635,1.635,1.6349,0,1.5993,1.6007,1.605,1.6078,1.6086,1.6113,1.6139,1.6164,1.6178,1.6214,1.6224,1.6246,1.6283,1.6301,1.6347,1.6356,1.6405,1.6406,1.6394,1.6395,1.6419,1.6416,1.6496,1.6507,1.6449,1.6449,1.645,0,1.6024,1.6049,1.608,1.6099,1.6114,1.6144,1.6164,1.6178,1.6199,1.6233,1.6255,1.6291,1.632,1.6379,1.6402,1.6437,1.6439,1.6465,1.6445,1.644,1.6439,1.6436,1.6439,1.6468,1.6468,1.6469,1.6469,0,1.6077,1.6083,1.611,1.6141,1.6165,1.619,1.6215,1.6231,1.6248,1.6273,1.6309,1.6331,1.6378,1.6414,1.6452,1.647,1.6473,1.6475,1.6483,1.6479,1.647,1.6475,1.6403,1.6473,1.6473,1.6473,1.6472,1.6472,1.6114,1.6136,1.6161,1.6193,1.6213,1.6236,1.626,1.6277,1.6307,1.6344,1.6351,1.639,1.6419,1.6469,1.6489,1.6521,1.6515,1.6527,1.6529,1.6532,1.6532,1.6466,1.6528,1.6528,1.6528,1.6528,1.6528,0,1.6166,1.6183,1.6211,1.6245,1.627,1.6269,1.6297,1.6319,1.6352,1.6378,1.6406,1.6449,1.6484,1.6509,1.6546,1.6567,1.6569,1.6576,1.6574,1.6579,1.6536,1.6525,1.6574,1.6574,1.6574,1.6574,1.6574,1.6574,1.6197,1.6235,1.6244,1.6294,1.6311,1.6346,1.6363,1.6385,1.6406,1.6452,1.6481,1.6496,1.6522,1.6561,1.6594,1.6601,1.6614,1.6621,1.6628,1.6587,1.6582,1.6577,1.6567,1.6624,1.6624,1.6668,1.6669,1.6669]},{"header":{"parameterUnit":"m.s-1","parameterCategory":1,"la1":30.2991,"la2":30.254,"lo1":-89.0895,"lo2":-89.0444,"dy":0.0017,"dx":0.0017,"nx":28,"ny":28,"refTime":"2024-07-30T03:00:00:Z","depth":0,"parameterNumber":3,"parameterNumberName":"V-component_of_WINDS"},"data":[0,0,0,0,0,0,0,0,0,0,0,0,0,0,0,0,0,0,0,0,0,0,0,0,0,0,0,0,0,0,0,0,0,0,0,0,0,0,0,0,0,0,0,0,0,0,0,0,0,0,0,0,0,0,0,0,0,0,4.0407,4.0407,0,4.0406,4.0406,4.0406,4.0417,4.0417,4.0417,4.0417,4.0414,4.0413,4.0413,0,0,0,0,0,0,0,0,0,0,0,0,0,4.0412,4.0412,4.0407,4.0407,4.0407,4.0406,4.0406,4.0406,4.0417,4.0417,4.0417,4.0418,4.0414,4.0413,4.0413,0,0,0,0,0,0,0,0,0,0,0,0,0,4.041,4.0412,4.0407,4.0412,4.0412,4.0406,4.0406,4.0406,4.0416,4.0417,4.0417,4.0418,4.0414,4.0413,4.0413,4.0401,0,0,4.0411,4.0411,0,0,0,0,0,0,0,0,4.041,4.041,4.0411,4.0412,4.0412,4.0412,4.0407,4.0404,4.0416,4.0415,4.0417,4.0418,4.0413,4.0412,4.0411,4.0401,4.0401,4.0411,4.0411,4.0411,4.0411,0,0,0,0,0,0,0,4.041,4.041,4.0407,4.0411,4.0412,4.0413,4.0413,4.0406,4.0411,4.0415,4.0416,4.0416,4.0413,4.0412,4.0411,4.0401,4.0411,4.0411,4.041,4.041,4.0378,4.0377,0,0,0,0,0,0,4.041,4.041,4.0407,4.0407,4.0412,4.0412,4.0413,4.0412,4.0411,4.0412,4.0415,4.0416,4.0412,4.0412,4.0411,4.0395,4.0411,4.041,4.041,4.0378,4.0377,4.0377,0,0,0,0,0,0,4.041,4.041,4.0407,4.0408,4.0408,4.0412,4.041,4.0411,4.041,4.0412,4.0412,4.0413,4.0413,4.0412,4.0403,4.0395,4.041,4.0409,4.0379,4.0378,4.0377,4.0365,0,0,0,0,0,0,4.041,4.041,4.0407,4.0408,4.0408,4.04,4.041,4.0411,4.041,4.0411,4.041,4.041,4.0413,4.0404,4.0402,4.0395,4.0409,4.0379,4.0378,4.0377,4.0366,4.0364,4.0362,0,0,0,0,0,4.0411,4.0403,4.0407,4.0406,4.0404,4.04,4.0399,4.0404,4.0409,4.0405,4.0405,4.041,4.0396,4.0403,4.0401,4.0394,4.038,4.0379,4.0377,4.0367,4.0364,4.0362,0,0,0,0,0,0,4.04,4.0404,4.0407,4.0401,4.04,4.0402,4.0397,4.0401,4.0398,4.0399,4.0403,4.0403,4.0393,4.0392,4.0399,4.038,4.0389,4.0387,4.0381,4.0379,4.0377,4.0377,4.0409,0,0,0,0,0,4.0397,4.0394,4.0397,4.0391,4.039,4.0393,4.0391,4.0395,4.0394,4.0393,4.0393,4.0391,4.0386,4.0382,4.0378,4.0366,4.0364,4.0359,4.0357,4.0356,4.0354,4.0345,4.0342,4.0373,4.0373,4.0373,0,0,4.0391,4.0392,4.039,4.0388,4.0388,4.0384,4.0393,4.0388,4.0384,4.0392,4.0384,4.0383,4.0381,4.037,4.0365,4.0369,4.0345,4.0354,4.0353,4.0352,4.0343,4.0341,4.0338,4.0372,4.0372,4.0372,0,0,4.0376,4.0378,4.0372,4.0371,4.0371,4.0373,4.0371,4.0372,4.0372,4.0364,4.0369,4.0363,4.0355,4.0352,4.035,4.0332,4.0335,4.033,4.0319,4.031,4.0308,4.0306,4.0297,4.0294,4.0328,4.0328,4.0328,0,4.0368,4.0363,4.0368,4.0362,4.036,4.0368,4.036,4.0359,4.0357,4.0354,4.0359,4.0347,4.0346,4.0333,4.0329,4.0327,4.0324,4.033,4.0308,4.0306,4.0304,4.0296,4.0293,4.0328,4.0328,4.0328,4.0328,0,4.0352,4.0347,4.0342,4.034,4.0338,4.0331,4.0334,4.033,4.0333,4.0333,4.0323,4.0322,4.0316,4.0313,4.0316,4.03,4.0302,4.0308,4.0316,4.03,4.0292,4.029,4.0327,4.0327,4.0327,4.0327,0,0,4.0332,4.0332,4.033,4.0328,4.0327,4.0323,4.0315,4.031,4.0306,4.0304,4.0296,4.0288,4.0292,4.0289,4.0291,4.0283,4.0266,4.0289,4.0289,4.0283,4.0246,4.0241,4.0238,4.0269,4.0268,4.0268,4.0245,0,4.0317,4.0306,4.0309,4.0297,4.0292,4.0297,4.029,4.0288,4.0288,4.0282,4.0281,4.0274,4.0281,4.0279,4.0272,4.027,4.0258,4.0272,4.0259,4.0259,4.0259,4.0234,4.023,4.0209,4.0243,4.0242,4.0242,0,4.0299,4.0296,4.0283,4.0281,4.0279,4.0273,4.0267,4.0262,4.0258,4.0258,4.0254,4.0257,4.0247,4.0255,4.024,4.0249,4.0244,4.0242,4.0241,4.0239,4.0249,4.023,4.0203,4.0199,4.0238,4.0238,4.0238,0,4.0284,4.0276,4.0267,4.0266,4.0263,4.0258,4.0257,4.0254,4.025,4.0244,4.0241,4.0234,4.023,4.0223,4.0223,4.0229,4.0206,4.0216,4.0204,4.0204,4.0199,4.0199,4.0169,4.0197,4.0198,4.0198,4.0198,0,4.0266,4.0258,4.026,4.0255,4.0245,4.0247,4.0237,4.0236,4.0232,4.0225,4.0228,4.0221,4.0221,4.0213,4.0212,4.0198,4.0197,4.0195,4.0195,4.0194,4.0194,4.019,4.0191,4.0197,4.0197,4.0197,4.0197,0,4.0248,4.025,4.024,4.0238,4.0237,4.0229,4.0227,4.022,4.022,4.021,4.0208,4.0206,4.0196,4.0195,4.0183,4.0183,4.0165,4.0167,4.0167,4.0167,4.0155,4.0156,4.0121,4.0115,4.0148,4.0148,4.0148,0,4.0237,4.023,4.0227,4.0223,4.0221,4.0215,4.021,4.0212,4.0207,4.02,4.0194,4.0184,4.0177,4.016,4.0157,4.0147,4.0148,4.0136,4.0146,4.0145,4.0145,4.0145,4.0144,4.0134,4.0134,4.0133,4.0133,0,4.0216,4.0216,4.0211,4.0204,4.0199,4.0194,4.019,4.0185,4.0186,4.0179,4.017,4.0164,4.0151,4.0141,4.0131,4.0127,4.0129,4.013,4.0126,4.0125,4.0125,4.0123,4.016,4.013,4.0131,4.0131,4.0131,4.0131,4.0199,4.0193,4.019,4.0183,4.0179,4.0174,4.0167,4.0165,4.0158,4.0148,4.0149,4.0138,4.0131,4.0117,4.0112,4.0102,4.0105,4.0101,4.01,4.0098,4.0096,4.0127,4.01,4.01,4.01,4.01,4.01,0,4.0177,4.0175,4.0168,4.0162,4.0155,4.0159,4.0153,4.0147,4.0137,4.0131,4.0123,4.011,4.0099,4.0094,4.0083,4.0075,4.0076,4.0072,4.0072,4.0071,4.0094,4.0098,4.0072,4.0072,4.0072,4.0072,4.0072,4.0072,4.0165,4.0154,4.0154,4.014,4.0137,4.0127,4.0123,4.0117,4.0112,4.0098,4.0089,4.0086,4.0079,4.0067,4.0056,4.0055,4.005,4.0045,4.0044,4.0066,4.0069,4.0072,4.0075,4.0045,4.0045,4.0021,4.0021,4.002]}]]